Flag for U.S.A. Weather past 2 weeks in Seattle, Washington, U.S.A.

Now
60 °F

Broken clouds.


Feels Like: 60 °F
Forecast: 53 / 71 °F
Wind: 5 mph from Southwest

Location: Seattle Boeing Field

Current Time: Apr 26, 2015 at 6:13:35 PM

Latest Report: Apr 26, 2015 at 4:53 PM


Visibility: 10 mi

Pressure: 30.22 "Hg

Humidity: 46%

Dew point: 39 °F

Location of SeattleLocation

Historic Weather in Seattle — Graph

°F

Seattle temperature yesterday

Maximum temperature yesterday: 57 °F (at 5:53 PM)
Minimum temperature yesterday: 46 °F (at 4:53 AM)
Average temperature yesterday: 51 °F

Past Weeks' High & Low Weather Summary

 TemperatureHumidityPressure
High74 °F (Apr 20, 4:53 PM)100% (Apr 13, 6:53 PM)30.56 "Hg (Apr 13, 6:53 PM)
Low39 °F (Apr 15, 5:53 AM)24% (Apr 22, 3:53 PM)29.77 "Hg (Apr 24, 3:53 AM)
Average53 °F62%30.12 "Hg
* Reported Apr 11 4:53 PM — Apr 26 4:53 PM, Seattle, Weather by CustomWeather, © 2015

Note: Actual official high and low records may vary slightly from our data, if they occured in-between our weather recording intervals... More about our weather records

Advertising

Seattle weather history for previous 24 hours

 ConditionsComfort  
Time TempWeatherWind HumidityBarometerVisibility
4:53 PM
Sun, Apr 26
60 °FBroken clouds.5 mph46%30.22 "Hg10 mi
3:53 PM61 °FPartly sunny.9 mph46%30.21 "Hg10 mi
2:53 PM60 °FBroken clouds.8 mph46%30.22 "Hg10 mi
1:53 PM58 °FScattered clouds.8 mph51%30.23 "Hg10 mi
12:53 PM57 °FMore clouds than sun.5 mph51%30.23 "Hg10 mi
11:53 AM56 °FMostly cloudy.No wind49%30.23 "Hg10 mi
10:53 AM54 °FMostly cloudy.3 mph55%30.23 "Hg10 mi
9:53 AM51 °FOvercast.6 mph61%30.21 "Hg10 mi
8:53 AM48 °FOvercast.7 mph66%30.19 "Hg10 mi
7:53 AM46 °FOvercast.6 mph73%30.19 "Hg10 mi
6:53 AM44 °FPassing clouds.6 mph76%30.16 "Hg10 mi
5:53 AM42 °FPassing clouds.No wind79%30.15 "Hg10 mi
4:53 AM43 °FPassing clouds.3 mph79%30.14 "Hg10 mi
3:53 AM44 °FClear.3 mph76%30.13 "Hg10 mi
2:53 AM44 °FClear.8 mph76%30.12 "Hg10 mi
1:53 AM44 °FClear.6 mph76%30.12 "Hg10 mi
12:53 AM46 °FClear.5 mph73%30.11 "Hg10 mi
11:53 PM
Sat, Apr 25
49 °FClear.No wind66%30.09 "Hg10 mi
10:53 PM49 °FClear.7 mph66%30.09 "Hg10 mi
9:53 PM51 °FPassing clouds.No wind63%30.08 "Hg10 mi
8:53 PM53 °FPartly sunny.No wind55%30.07 "Hg10 mi
7:53 PM54 °FPartly sunny.No wind51%30.05 "Hg10 mi
6:53 PM56 °FScattered clouds.3 mph46%30.03 "Hg10 mi
Weather by CustomWeather, © 2015

See weather overviewHow to use our weather pages